Annette Island, AK

7:08 AM AKST on November 23, 2017 (GMT -0900)
Annette Island

Weather History for PANT - July, 2013

Change the Weather History Date:

Saturday, July 6, 2013

  Actual Average Record
Temperature  
Mean Temperature 63 °F 58 °F  
Max Temperature 71 °F 63 °F 88 °F (2015)
Min Temperature 54 °F 52 °F 40 °F (1973)
Degree Days  
Heating Degree Days 2    
Month to date heating degree days 28 48  
Since 1 June heating degree days 248 346  
Since 1 July heating degree days 28 48  
Cooling Degree Days 0    
Month to date cooling degree days 0  
Year to date cooling degree days 6  
Since 1 June cooling degree days 6  
Growing Degree Days 12 (Base 50)    
Moisture  
Dew Point 51 °F    
Average Humidity 0    
Maximum Humidity 0    
Minimum Humidity 0    
Precipitation  
Precipitation 0.00 in 0.15 in 2.21 in (1956)
Month to date precipitation 0.00 0.89  
Year to date precipitation 43.29 44.19  
Snow  
Snow 0.00 in 0.00 in 0.00 in (2016)
Month to date snowfall 0.0 0.0  
Since 1 June snowfall 0.0 0.0  
Since 1 July snowfall 0.0 0.0  
Snow Depth 0.00 in    
Sea Level Pressure  
Sea Level Pressure 30.10 in    
Wind  
Wind Speed 7 mph (NW)    
Max Wind Speed 14 mph    
Max Gust Speed 18 mph    
Visibility 10 miles    
Events      
T = Trace of Precipitation, MM = Missing Value Source: NWS Daily Summary

Daily Weather History Graph

Daily Weather History Graph

Search for Another Location

Airport or City:

Trip Planner

Search our weather history database for the weather conditions in past years. The results will help you decide how hot, cold, wet, or windy it might be!

Date:

Astronomy

Jul. 06, 2013 Rise Set
Actual Time 4:16 AM AKDT 9:24 PM AKDT
Civil Twilight 3:20 AM AKDT 10:20 PM AKDT
Nautical Twilight 1:24 AM AKDT 12:13 AM AKDT
Astronomical Twilight Sun does not rise Sun does not rise
Moon 3:19 AM AKDT (7/6) 7:58 PM AKDT (7/6)
Length of Visible Light 18h 59m
Length of Day
17h 08m
Waning Crescent, 2% of the Moon is Illuminated
Jul 6
Waning Crescent
Jul 7
New
Jul 15
First Quarter
Jul 22
Full
Jul 29
Last Quarter

Hourly Weather History & Observations

Time (AKDT) Temp. Dew Point Humidity Pressure Visibility Wind Dir Wind Speed Gust Speed Precip Events Conditions
12:53 AM 57.0 °F 50.0 °F 77% 30.17 in 10.0 mi NNW 6.9 mph - N/A   Overcast
1:53 AM 57.0 °F 50.0 °F 77% 30.17 in 10.0 mi NNW 8.1 mph - N/A   Overcast
2:53 AM 55.0 °F 50.0 °F 83% 30.16 in 10.0 mi NNW 4.6 mph - N/A   Mostly Cloudy
3:53 AM 54.0 °F 48.9 °F 83% 30.15 in 10.0 mi North 4.6 mph - N/A   Mostly Cloudy
4:53 AM 54.0 °F 50.0 °F 86% 30.14 in 10.0 mi North 5.8 mph - N/A   Mostly Cloudy
5:53 AM 57.0 °F 50.0 °F 77% 30.14 in 10.0 mi NNW 9.2 mph - N/A   Scattered Clouds
6:53 AM 57.9 °F 51.1 °F 78% 30.14 in 10.0 mi NW 12.7 mph - N/A   Scattered Clouds
7:53 AM 60.1 °F 51.1 °F 72% 30.13 in 10.0 mi NNW 9.2 mph - N/A   Clear
8:53 AM 62.1 °F 51.1 °F 67% 30.13 in 10.0 mi NNW 12.7 mph - N/A   Mostly Cloudy
9:53 AM 64.0 °F 52.0 °F 65% 30.12 in 10.0 mi NNW 9.2 mph - N/A   Mostly Cloudy
10:53 AM 66.0 °F 51.1 °F 59% 30.12 in 10.0 mi NW 8.1 mph - N/A   Mostly Cloudy
11:53 AM 66.0 °F 52.0 °F 60% 30.11 in 10.0 mi WNW 6.9 mph - N/A   Mostly Cloudy
12:53 PM 70.0 °F 53.1 °F 55% 30.11 in 10.0 mi NW 10.4 mph - N/A   Overcast
1:53 PM 69.1 °F 51.1 °F 53% 30.10 in 10.0 mi NW 6.9 mph - N/A   Mostly Cloudy
2:53 PM 68.0 °F 50.0 °F 52% 30.09 in 10.0 mi WNW 6.9 mph - N/A   Mostly Cloudy
3:53 PM 69.1 °F 51.1 °F 53% 30.07 in 10.0 mi Variable 5.8 mph - N/A   Mostly Cloudy
4:53 PM 64.9 °F 52.0 °F 63% 30.06 in 10.0 mi WNW 6.9 mph - N/A   Mostly Cloudy
5:53 PM 66.9 °F 51.1 °F 57% 30.05 in 10.0 mi WNW 6.9 mph - N/A   Clear
6:53 PM 64.0 °F 52.0 °F 65% 30.05 in 10.0 mi WNW 5.8 mph - N/A   Clear
7:53 PM 63.0 °F 52.0 °F 67% 30.04 in 10.0 mi NW 5.8 mph - N/A   Clear
8:53 PM 61.0 °F 52.0 °F 72% 30.05 in 10.0 mi NW 6.9 mph - N/A   Clear
9:53 PM 57.9 °F 52.0 °F 81% 30.06 in 10.0 mi NNW 4.6 mph - N/A   Clear
10:53 PM 55.0 °F 51.1 °F 86% 30.06 in 10.0 mi NNW 3.5 mph - N/A   Clear
11:53 PM 55.9 °F 52.0 °F 87% 30.06 in 10.0 mi NNW 4.6 mph - N/A   Clear